Weather History for KHOU - January, 2013

Change the Weather History Date:

Saturday, January 5, 2013

  Actual Average Record
Temperature  
Mean Temperature 45 °F 53 °F  
Max Temperature 47 °F 62 °F 80 °F (1998)
Min Temperature 42 °F 43 °F 22 °F (1972)
Degree Days  
Heating Degree Days 20 13  
Month to date heating degree days 85 65  
Since 1 July heating degree days 509 604  
Moisture  
Dew Point 43 °F    
Average Humidity 83    
Maximum Humidity 100    
Minimum Humidity 65    
Precipitation  
Precipitation 0.84 in 0.11 in 1.39 in (1979)
Month to date precipitation 0.97 0.52  
Year to date precipitation 0.97 0.52  
Sea Level Pressure  
Sea Level Pressure 30.31 in    
Wind  
Wind Speed 8 mph (NNE)    
Max Wind Speed 12 mph    
Max Gust Speed 15 mph    
Visibility 7 miles    
Events Rain    
T = Trace of Precipitation, MM = Missing Value Source: NWS Daily Summary

Daily Weather History Graph

Daily Weather History Graph

Search for Another Location

Airport or City:

Trip Planner

Search our weather history database for the weather conditions in past years. The results will help you decide how hot, cold, wet, or windy it might be!

Date:

Astronomy

Jan. 05, 2013 Rise Set
Actual Time 7:17 AM CST 5:36 PM CST
Civil Twilight 6:50 AM CST 6:02 PM CST
Nautical Twilight 6:21 AM CST 6:32 PM CST
Astronomical Twilight 5:52 AM CST 7:01 PM CST
Moon 12:39 AM CST (1/5) 12:13 PM CST (1/5)
Length of Visible Light 11h 11m
Length of Day
10h 19m
Last Quarter, 44% of the Moon is Illuminated
Jan 5
Last Quarter
Jan 11
New
Jan 18
First Quarter
Jan 26
Full
Feb 3
Last Quarter

Hourly Weather History & Observations

Time (CST) Temp. Windchill Dew Point Humidity Pressure Visibility Wind Dir Wind Speed Gust Speed Precip Events Conditions
12:53 AM 46.0 °F 42.5 °F 37.9 °F 73% 30.38 in 10.0 mi NNE 6.9 mph - 0.00 in   Overcast
1:53 AM 46.0 °F 43.1 °F 37.0 °F 71% 30.38 in 10.0 mi NNE 5.8 mph - 0.00 in   Overcast
2:53 AM 46.0 °F 41.9 °F 37.9 °F 73% 30.37 in 10.0 mi NNE 8.1 mph - 0.00 in   Overcast
3:53 AM 45.0 °F 39.7 °F 39.9 °F 82% 30.35 in 10.0 mi North 10.4 mph - 0.00 in   Overcast
4:53 AM 45.0 °F 39.3 °F 39.9 °F 82% 30.35 in 8.0 mi North 11.5 mph - 0.01 in Rain Light Rain
5:53 AM 44.1 °F 39.5 °F 39.9 °F 85% 30.35 in 8.0 mi North 8.1 mph - 0.02 in   Overcast
6:53 AM 44.1 °F 40.1 °F 41.0 °F 89% 30.37 in 6.0 mi NNE 6.9 mph - 0.07 in Rain Light Rain
7:11 AM 44.6 °F 39.7 °F 41.0 °F 87% 30.36 in 8.0 mi North 9.2 mph - 0.01 in Rain Light Rain
7:53 AM 45.0 °F 41.2 °F 42.1 °F 90% 30.38 in 9.0 mi North 6.9 mph - 0.01 in   Overcast
8:53 AM 44.1 °F 39.0 °F 42.1 °F 93% 30.39 in 4.0 mi North 9.2 mph - 0.09 in Rain Rain
9:53 AM 45.0 °F 40.6 °F 42.1 °F 90% 30.39 in 3.0 mi ENE 8.1 mph - 0.00 in Rain Rain
10:53 AM 46.0 °F 40.2 °F 42.1 °F 86% 30.35 in 10.0 mi NE 12.7 mph - 0.05 in   Overcast
11:53 AM 46.0 °F 41.0 °F 42.1 °F 86% 30.34 in 3.0 mi NE 10.4 mph - 0.05 in Rain Rain
12:13 PM 46.4 °F 42.9 °F 42.8 °F 87% 30.31 in 2.0 mi NNE 6.9 mph - 0.03 in Rain Rain
12:27 PM 46.4 °F 42.4 °F 42.8 °F 87% 30.31 in 4.0 mi NNE 8.1 mph - 0.04 in Rain Light Rain
12:53 PM 46.0 °F 42.5 °F 43.0 °F 89% 30.31 in 5.0 mi North 6.9 mph - 0.06 in Rain Light Rain
1:53 PM 46.0 °F 42.5 °F 44.1 °F 93% 30.29 in 9.0 mi North 6.9 mph - 0.03 in Rain Light Rain
1:59 PM 46.4 °F 43.5 °F 42.8 °F 87% 30.29 in 2.0 mi North 5.8 mph - 0.05 in Rain Heavy Rain
2:07 PM 46.4 °F 42.9 °F 42.8 °F 87% 30.28 in 7.0 mi North 6.9 mph - 0.05 in Rain Light Rain
2:53 PM 46.0 °F 42.5 °F 44.1 °F 93% 30.30 in 6.0 mi NNE 6.9 mph - 0.10 in Rain Light Rain
3:30 PM 46.4 °F 41.9 °F 44.6 °F 93% 30.26 in 4.0 mi NNE 9.2 mph - 0.06 in Rain Heavy Rain
3:53 PM 46.0 °F 41.9 °F 44.1 °F 93% 30.28 in 4.0 mi NNE 8.1 mph - 0.13 in Rain Light Rain
4:18 PM 46.4 °F 42.9 °F 44.6 °F 93% 30.27 in 2.0 mi NE 6.9 mph - 0.06 in Rain Rain
4:53 PM 46.4 °F 42.4 °F 44.6 °F 93% 30.26 in 4.0 mi NNE 8.1 mph - N/A Rain Light Rain
5:53 PM 46.9 °F - 44.1 °F 90% 30.27 in 5.0 mi NE 6.9 mph - 0.02 in Rain Light Rain
6:10 PM 46.4 °F 42.9 °F 44.6 °F 93% 30.25 in 6.0 mi ENE 6.9 mph - 0.00 in   Overcast
6:39 PM 46.4 °F 43.5 °F 44.6 °F 93% 30.25 in 10.0 mi NE 5.8 mph - 0.00 in   Overcast
6:53 PM 46.9 °F - 44.1 °F 90% 30.27 in 6.0 mi NE 5.8 mph - 0.00 in   Overcast
7:53 PM 46.9 °F - 45.0 °F 93% 30.27 in 7.0 mi North 6.9 mph - N/A   Overcast
8:53 PM 46.9 °F - 44.1 °F 90% 30.29 in 7.0 mi North 8.1 mph - N/A   Overcast
9:53 PM 46.9 °F - 44.1 °F 90% 30.30 in 8.0 mi North 8.1 mph - N/A   Overcast
10:53 PM 46.9 °F - 44.1 °F 90% 30.29 in 8.0 mi North 6.9 mph - N/A   Overcast
11:36 PM 46.4 °F 41.9 °F 44.6 °F 93% 30.27 in 8.0 mi North 9.2 mph - N/A   Overcast
11:49 PM 46.4 °F 42.4 °F 44.6 °F 93% 30.27 in 10.0 mi North 8.1 mph - N/A   Overcast
11:53 PM 46.9 °F - 44.1 °F 90% 30.29 in 10.0 mi North 9.2 mph - N/A   Overcast